Regional Weather Roundup
Issued by NWS Lake Charles, LA

Current Version | Previous Version | Text Only | Print | Product List | Glossary On
Versions: 1 2 3 4 5 6 7 8 9 10 11 12 13 14 15 16 17 18 19 20 21 22 23 24 25 26 27 28 29 30 31 32 33 34 35 36 37 38 39 40 41 42 43 44 45 46 47 48 49 50
104
ASUS44 KLCH 200510
RWRLCH
REGIONAL WEATHER ROUNDUP
NATIONAL WEATHER SERVICE LAKE CHARLES LA
1100 PM CST SUN FEB 19 2017

Note: "fair" indicates few or no clouds below 12,000 feet with no
significant weather and/or obstructions to visibility.


ACROSS SOUTHEAST TEXAS

CITY           SKY/WX    TMP DP  RH WIND       PRES   REMARKS
BEAUMONT       CLOUDY    70  67  90 SE21G29   29.92F
BEAUMONT CITY  CLOUDY    72  68  88 SE15G24   29.94R
ORANGE         CLOUDY    69  68  96 SE12G21   29.96S
JASPER         CLOUDY    71  68  89 SE5       29.97S
$$

ACROSS CENTRAL LOUISIANA

CITY           SKY/WX    TMP DP  RH WIND       PRES   REMARKS
LEESVILLE      CLOUDY    70  66  88 SE16G29   29.96S
FULLERTON      CLOUDY    69  66  90 VRB5      29.95F
ALEXANDRIA INT CLEAR     67  63  87 SE9       29.97F
ESLER FIELD    CLEAR     65  61  87 SE5       29.99F
DERIDDER       CLOUDY    71  67  89 SE12G18   29.98F
OAKDALE        CLOUDY    71  66  85 SE8       29.99R
OPELOUSAS      CLOUDY    69  65  86 MISG      30.00F
$$

ACROSS SOUTHWEST AND SOUTH CENTRAL LOUISIANA

CITY           SKY/WX    TMP DP  RH WIND       PRES   REMARKS
SULPHUR        CLOUDY    72  69  88 SE17G23   29.95F
LAKE CHARLES   CLOUDY    70  68  93 SE15      29.95S
CHENNAULT INT  CLOUDY    70  68  94 SE21G26   29.97S
CAMERON PHI    FOG       68  68 100 SE21      29.93F VSB 1/4
DEQUINCY       CLOUDY    71  67  89 SE10G17   29.96S
JENNINGS       CLOUDY    69  67  92 SE14      29.98R
LAFAYETTE      CLOUDY    73  67  81 SE8       30.00F
NEW IBERIA     CLOUDY    71  65  81 SE12      30.01F
ABBEVILLE      CLOUDY    70  70 100 SE9       30.01S
PATTERSON      CLOUDY    70  67  90 SE8       30.03F
SALT POINT       N/A     69  67  93 SE10G18   30.01S
$$

SELECTED SITES ACROSS THE REGION

CITY           SKY/WX    TMP DP  RH WIND       PRES   REMARKS
HOUSTON BUSH   DRIZZLE   70  68  93 SE15      29.90R FOG
HOUSTON HOBBY  CLOUDY    71  69  93 SE12G24   29.90R FOG
GALVESTON      CLOUDY    71  69  93 SE20      29.89R
COLLEGE STAT   CLOUDY    71  67  87 SE8       29.89R
CONROE         LGT RAIN  69  68  96 SE8       29.91R FOG
HUNTSVILLE     CLOUDY    72  66  81 SE6       29.92R
LUFKIN         CLOUDY    69  65  86 SE10      29.92F
SHREVEPORT     MOCLDY    69  62  78 SE10      29.95S
MONROE         CLEAR     69  48  47 SE6       30.00F
NATCHEZ MS     CLEAR     64  55  72 SE9       30.03F
BATON ROUGE    CLOUDY    67  65  93 E8        30.03F
N.O. INTL ARPT PTCLDY    66  65  96 SE9       30.06F
SLIDELL        FOG       64  64 100 SE6       30.07F VSB 3/4
$$

MARINE REPORTS

STATION/POSITION TIME  SKY/WX   TEMP    WIND        PRES    VSBY
                                AIR SEA DIR/SP/G
                 (UTC)          (F)     (DEG/KT/KT) (MB)    (MI)
BUOY 30 S HIGH I 0450            68 64  130/ 19/ 23 1011.8R
WVE H/P(F/S)=  4/ 7

SEA RIM ST PARK  0500            67     120/ 15/ 18 1013.6F
PORT ARTHUR      0448               65  130/ 12/ 18 1013.7S
SABINE PASS N    0448            67 68  120/ 17/ 23 1014.5F
TEXAS POINT      NOT AVBL
CALCASIEU PASS   0448            67 67  140/ 16/ 21   N/A
LK CHARLES BEACH 0448            70 64              1014.7S
MARSH ISLAND     0400            66                   N/A
FRESH WATER LOCK 0448            67 67  100/ 11/ 16 1016.4F
AMERADA PASS     0448            68 56  110/  7/ 12 1016.5F
$$




USA.gov is the U.S. government's official web portal to all federal, state and local government web resources and services.